User: anonymous   Login
Location: Unspecified
(0.0000°N, 0.0000°E)
Time: 03:20:59
(UTC+00:00)
Language:

STARLINK-3742 - Orbit

View from above orbital plane
View from above orbital plane
View from above satellite
View from above satellite

Ground track
Ground track

The orbit is defined by the following mean orbital elements,

1 52303U          26145.63229544 +.00000000 +00000-0 +37728-3 0 00009
2 52303  53.2139 113.7105 0001261  86.3613 273.7524 15.08818808    00
Epoch (UTC): 25 May 2026 15:10:30
Eccentricity: 0.0001261
inclination: 53.2139°
perigee height: 539 km
apogee height: 541 km
right ascension of ascending node: 113.7105°
argument of perigee: 86.3613°
revolutions per day: 15.08818808
mean anomaly at epoch: 273.7524°

The dashed part of the orbit path shows where the satellite is in the earth's shadow,  

DLR